Location: Liscomb Game Sanctuary
(45.1633°N, 62.5575°W)
Time: 17:10:51
(UTC-04:00)

Amateur Radio Satellites - All Passes

Search period start: 09 December 2016 16:40
Search period end: 10 December 2016 16:40
Location: Liscomb Game Sanctuary, 45.1633°N, 62.5575°W

Satellite Date Start Highest point End Downlink Frequencies (MHz)
Time Altitude Azimuth
HORYU 2 09 Dec 16:41:11 16:45:41 89° 254° (WSW) 16:50:11 437.375
O/OREOS (USA 219) 09 Dec 16:45:24 16:49:04 23° 306° (NW) 16:52:45 437.305
ISS 09 Dec 16:48:22 16:51:30 39° 342° (NNW) 16:54:38 145.825
HO-68 09 Dec 16:50:35 16:54:17 15° 47° (NE) 16:58:00 435.675
DOVE 4 09 Dec 16:50:55 16:55:08 29° 65° (ENE) 16:59:33 437.250
GOMX 1 09 Dec 16:59:33 17:04:14 72° 74° (ENE) 17:09:19 467.674
CUTE-I 09 Dec 17:02:56 17:08:03 48° 69° (ENE) 17:13:12 437.470
LilacSat-2 09 Dec 17:06:17 17:09:56 44° 72° (ENE) 17:13:36 437.200
NOAA 15 09 Dec 17:12:55 17:18:05 64° 72° (ENE) 17:23:17 137.62
Cosmos 2491 09 Dec 17:17:27 17:26:02 57° 75° (ENE) 17:34:33 435.465 / 435.565
Cubesat XI-IV 09 Dec 17:29:54 17:35:16 80° 74° (ENE) 17:40:40 437.490
CINEMA 3 09 Dec 17:41:15 17:45:15 25° 64° (ENE) 17:49:17 145.822/145.860
NOAA 18 09 Dec 17:44:40 17:50:11 73° 72° (ENE) 17:55:45 137.9125
BRITE-PL 09 Dec 17:46:00 17:49:05 18° 271° (W) 17:52:19 437.365/2234.400
YUBILEINY 09 Dec 17:46:32 17:53:59 33° 83° (E) 18:01:30 435.215
STARS 09 Dec 17:59:18 18:03:08 29° 293° (WNW) 18:06:56 437.465
KKS-1 09 Dec 18:05:25 18:07:54 15° 300° (WNW) 18:10:21 437.445
PCSat 09 Dec 18:15:28 18:19:48 23° 41° (NE) 18:24:06 145.827
CUBESAT XI-V 09 Dec 18:15:54 18:19:53 28° 294° (WNW) 18:23:52 437.345
CUTE 1.7 + AOD 2 09 Dec 18:17:51 18:21:26 28° 68° (ENE) 18:25:02 437.475
Cosmos 2504 09 Dec 18:21:28 18:28:18 28° 80° (E) 18:35:22 435.465 / 435.565
AAUSAT CUBESAT 2 09 Dec 18:24:18 18:26:02 12° 61° (ENE) 18:27:47 437.432
ISS 09 Dec 18:25:44 18:28:34 25° 2° (N) 18:31:24 145.825
DOVE 4 09 Dec 18:28:02 18:32:38 39° 264° (W) 18:37:29 437.250
RS-15 09 Dec 18:29:19 18:37:17 21° 263° (W) 18:45:09 29.354- 29.394
HO-68 09 Dec 18:33:37 18:40:40 64° 68° (ENE) 18:47:46 435.675
STRAND 1 09 Dec 18:35:54 18:39:41 21° 92° (E) 18:43:28 437.568
CANX-2 09 Dec 18:36:08 18:40:12 50° 72° (ENE) 18:44:17 2200.000
GOMX 1 09 Dec 18:40:27 18:42:58 14° 274° (W) 18:45:36 467.674
LilacSat-2 09 Dec 18:42:13 18:44:27 15° 269° (W) 18:46:41 437.200
ZACube-1 09 Dec 18:42:40 18:43:23 10° 58° (ENE) 18:44:05 437.345
CUTE-I 09 Dec 18:43:58 18:48:19 25° 267° (W) 18:52:42 437.470
FUNcube-1 09 Dec 18:47:40 18:48:43 11° 59° (ENE) 18:49:45 145.935
SO-50 09 Dec 18:51:03 18:55:24 36° 117° (ESE) 18:59:42 436.795
SEEDS 09 Dec 18:53:17 18:57:14 45° 72° (ENE) 19:01:13 437.485
NOAA 15 09 Dec 18:54:49 18:58:19 18° 269° (W) 19:01:50 137.62
COMPASS 1 09 Dec 18:56:20 19:00:01 33° 69° (ENE) 19:03:43 437.405
CUBEBUG 2 09 Dec 19:08:34 19:13:04 43° 71° (ENE) 19:17:30 437.445
Oscar 11 09 Dec 19:11:10 19:13:56 17° 63° (ENE) 19:16:42 145.826/435.025
Cubesat XI-IV 09 Dec 19:13:03 19:15:58 15° 271° (W) 19:18:54 437.490
Cosmos 2491 09 Dec 19:14:54 19:22:27 35° 276° (W) 19:29:59 435.465 / 435.565
CINEMA 3 09 Dec 19:17:18 19:22:04 46° 262° (W) 19:26:56 145.822/145.860
AIST 1 09 Dec 19:21:34 19:25:51 69° 97° (E) 19:30:13
NOAA 18 09 Dec 19:27:53 19:31:24 17° 270° (W) 19:34:57 137.9125
YUBILEINY 09 Dec 19:41:45 19:50:18 59° 284° (WNW) 19:58:58 435.215
UWE-3 09 Dec 19:42:26 19:47:01 62° 73° (ENE) 19:51:31 435.000/436.395/437.385
CUSAT 1 09 Dec 19:45:17 19:49:09 71° 79° (E) 19:54:16 437.405
CUTE 1.7 + AOD 2 09 Dec 19:53:36 19:57:13 28° 265° (W) 20:00:52 437.475
AAUSAT CUBESAT 2 09 Dec 19:56:53 20:00:57 69° 258° (WSW) 20:05:05 437.432
PCSat 09 Dec 19:58:19 20:03:45 73° 241° (WSW) 20:09:08 145.827
ISS 09 Dec 20:02:23 20:05:35 46° 21° (NNE) 20:08:48 145.825
Cosmos 2504 09 Dec 20:12:23 20:20:52 71° 282° (WNW) 20:29:47 435.465 / 435.565
CANX-2 09 Dec 20:13:46 20:16:21 16° 269° (W) 20:18:56 2200.000
STRAND 1 09 Dec 20:14:14 20:19:11 53° 290° (WNW) 20:24:07 437.568
ZACube-1 09 Dec 20:14:24 20:18:56 82° 76° (ENE) 20:23:24 437.345
FUNcube-1 09 Dec 20:19:44 20:24:16 86° 74° (ENE) 20:28:42 145.935
DELFI C3 09 Dec 20:20:41 20:24:06 29° 69° (ENE) 20:27:32 145.870
HO-68 09 Dec 20:22:58 20:28:51 27° 267° (W) 20:34:49 435.675
SEEDS 09 Dec 20:30:26 20:33:10 17° 269° (W) 20:35:55 437.485
SO-50 09 Dec 20:31:30 20:35:52 35° 315° (NW) 20:40:11 436.795
COMPASS 1 09 Dec 20:32:21 20:35:37 23° 266° (W) 20:38:56 437.405
Oscar 11 09 Dec 20:45:27 20:49:40 53° 260° (W) 20:53:54 145.826/435.025
CUBEBUG 2 09 Dec 20:46:08 20:49:50 22° 267° (W) 20:53:31 437.445
PRISM 09 Dec 20:54:29 20:58:14 32° 97° (E) 21:02:00 437.425
AIST 1 09 Dec 21:02:05 21:03:59 13° 295° (WNW) 21:05:55
HUMSAT D 09 Dec 21:06:40 21:10:44 52° 73° (ENE) 21:14:46 437.325/437.525
UNISAT 6 09 Dec 21:07:54 21:08:57 11° 87° (E) 21:10:01 437.425
DANDE 09 Dec 21:11:51 21:14:43 44° 261° (W) 21:18:16 436.750
UWE-3 09 Dec 21:21:09 21:23:50 15° 270° (W) 21:26:31 435.000/436.395/437.385
CUSAT 1 09 Dec 21:29:43 21:30:54 11° 269° (W) 21:32:09 437.405
TIGRISAT 09 Dec 21:34:46 21:37:59 20° 92° (E) 21:41:09 435.000
ANTELSAT 09 Dec 21:37:10 21:40:36 22° 93° (E) 21:43:58 437.575/2403.000
ISS 09 Dec 21:39:01 21:42:01 32° 220° (SW) 21:45:01 145.825
AISAT 09 Dec 21:43:31 21:44:22 10° 57° (ENE) 21:45:13 437.250
PCSat 09 Dec 21:45:31 21:46:09 10° 259° (W) 21:46:48 145.827
YUBILEINY 09 Dec 21:45:32 21:49:24 13° 309° (NW) 21:53:18 435.215
ESTCUBE 1 09 Dec 21:51:15 21:54:57 26° 66° (ENE) 21:58:40 437.505/2401.250
ZACube-1 09 Dec 21:54:38 21:55:45 11° 272° (W) 21:56:52 437.345
DELFI C3 09 Dec 21:55:46 21:58:56 23° 266° (W) 22:02:07 145.870
CUBEBUG 1 09 Dec 21:56:03 21:59:04 18° 63° (ENE) 22:02:07 437.445
FUNcube-1 09 Dec 22:00:38 22:01:03 10° 273° (W) 22:01:28 145.935
Cosmos 2504 09 Dec 22:10:44 22:16:07 17° 305° (NW) 22:21:38 435.465 / 435.565
SO-50 09 Dec 22:17:04 22:17:43 10° 338° (NNW) 22:18:21 436.795
VELOX 1 09 Dec 22:17:18 22:20:36 21° 64° (ENE) 22:23:57 145.980
DX 1 09 Dec 22:18:28 22:20:17 12° 59° (ENE) 22:22:06 434.975-435.025
SPROUT 09 Dec 22:20:28 22:22:54 15° 62° (ENE) 22:25:21 437.525
GONETS M04 09 Dec 22:29:17 22:33:07 14° 72° (ENE) 22:36:56
PRISM 09 Dec 22:29:59 22:33:24 25° 294° (WNW) 22:36:48 437.425
QB50P2 09 Dec 22:37:18 22:38:48 12° 89° (E) 22:40:17 145.880/145.840
POLYITAN 1 09 Dec 22:38:03 22:39:11 11° 88° (E) 22:40:19 437.675
JAS-2 09 Dec 22:40:24 22:44:30 23° 94° (E) 22:48:45 435.910
UNISAT 6 09 Dec 22:41:51 22:46:15 76° 285° (WNW) 22:50:32 437.425
HUMSAT D 09 Dec 22:44:14 22:46:39 15° 269° (W) 22:49:02 437.325/437.525
DUCHIFAT 1 09 Dec 22:47:16 22:48:49 12° 89° (E) 22:50:23 145.980
QB50P1 09 Dec 22:48:36 22:50:59 15° 90° (E) 22:53:21 145.935-145.965
Cosmos 2499 09 Dec 23:01:24 23:08:18 27° 80° (E) 23:15:19 435.465 / 435.565
POPSAT HIP 1 09 Dec 23:09:43 23:13:11 24° 94° (E) 23:16:35 437.405
TIGRISAT 09 Dec 23:10:45 23:14:52 41° 290° (WNW) 23:18:53 435.000
ANTELSAT 09 Dec 23:13:24 23:17:26 36° 291° (WNW) 23:21:22 437.575/2403.000
AISAT 09 Dec 23:15:38 23:20:04 83° 76° (ENE) 23:24:33 437.250
PHONESAT 2.4 09 Dec 23:17:41 23:19:38 18° 164° (SSE) 23:21:34 2401.200-2431.200
50 SAT 09 Dec 23:21:28 23:24:57 76° 76° (ENE) 23:28:29 437.505
BUGSAT 1 09 Dec 23:26:58 23:28:40 12° 89° (E) 23:30:20 437.445
ESTCUBE 1 09 Dec 23:27:32 23:31:37 34° 263° (W) 23:35:44 437.505/2401.250
TISAT 1 09 Dec 23:27:46 23:29:52 14° 60° (ENE) 23:31:57 437.305
CUBEBUG 1 09 Dec 23:30:44 23:34:59 50° 260° (W) 23:39:17 437.445
O/OREOS (USA 219) 09 Dec 23:34:41 23:37:32 16° 49° (NE) 23:40:21 437.305
UKube-1 09 Dec 23:50:15 23:54:32 75° 75° (ENE) 23:58:53 .
DX 1 09 Dec 23:51:29 23:55:51 80° 258° (WSW) 00:00:15 434.975-435.025
VELOX 1 09 Dec 23:52:34 23:56:46 43° 261° (W) 00:01:03 145.980
SPROUT 09 Dec 23:54:05 23:58:21 62° 259° (W) 00:02:39 437.525
NANOSAT C BR1 10 Dec 00:00:45 00:05:00 81° 103° (ESE) 00:09:12 145.865
M-CUBED/EXP-1 PRIME 10 Dec 00:02:13 00:03:43 12° 51° (NE) 00:05:14 437.505
QB50P2 10 Dec 00:10:50 00:15:04 69° 287° (WNW) 00:19:16 145.880/145.840
POLYITAN 1 10 Dec 00:11:15 00:15:29 73° 285° (WNW) 00:19:40 437.675
GONETS M04 10 Dec 00:19:35 00:28:11 69° 93° (E) 00:36:49
ITUPSAT 1 10 Dec 00:20:16 00:21:58 12° 57° (ENE) 00:23:39 437.325
DUCHIFAT 1 10 Dec 00:20:47 00:24:58 67° 286° (WNW) 00:29:07 145.980
QB50P1 10 Dec 00:22:57 00:27:07 54° 287° (WNW) 00:31:12 145.935-145.965
JAS-2 10 Dec 00:24:53 00:29:53 49° 290° (WNW) 00:35:08 435.910
AO-85 10 Dec 00:34:29 00:38:46 31° 116° (ESE) 00:42:48 145.980
POPSAT HIP 1 10 Dec 00:45:12 00:49:00 33° 292° (WNW) 00:52:47 437.405
Cosmos 2499 10 Dec 00:51:53 01:00:34 74° 281° (W) 01:09:32 435.465 / 435.565
PHONESAT 2.4 10 Dec 00:52:02 00:54:23 29° 180° (S) 00:56:45 2401.200-2431.200
Oscar 19 10 Dec 00:55:14 00:59:41 28° 94° (E) 01:04:06 437.125/150
AISAT 10 Dec 00:56:19 00:57:08 10° 272° (W) 00:57:56 437.250
BUGSAT 1 10 Dec 01:00:19 01:04:28 64° 287° (WNW) 01:08:32 437.445
TISAT 1 10 Dec 01:00:43 01:04:56 69° 257° (WSW) 01:09:13 437.305
O/OREOS (USA 219) 10 Dec 01:12:59 01:17:27 69° 249° (WSW) 01:21:52 437.305
AUBIESAT-1 10 Dec 01:17:18 01:21:24 45° 64° (ENE) 01:25:44 437.475
SWISSCUBE 10 Dec 01:20:22 01:24:54 45° 69° (ENE) 01:29:26 437.505
BEESAT 10 Dec 01:23:57 01:28:28 44° 69° (ENE) 01:33:00 436.000
Gurwin Techsat 1B 10 Dec 01:25:28 01:30:00 28° 94° (E) 01:34:30 435.225
UKube-1 10 Dec 01:29:50 01:31:06 11° 271° (W) 01:32:23 .
M-CUBED/EXP-1 PRIME 10 Dec 01:33:04 01:37:19 78° 70° (ENE) 01:41:54 437.505
NANOSAT C BR1 10 Dec 01:38:39 01:40:04 12° 301° (WNW) 01:41:30 145.865
SO-50 10 Dec 01:41:00 01:43:14 13° 28° (NNE) 01:45:27 436.795
MOZHAYETS 4 10 Dec 01:53:00 01:56:29 22° 64° (ENE) 01:59:58
ITUPSAT 1 10 Dec 01:54:14 01:59:01 83° 76° (ENE) 02:03:50 437.325
KKS-1 10 Dec 01:54:55 01:55:42 10° 57° (ENE) 01:56:28 437.445
AO-85 10 Dec 02:14:38 02:19:08 39° 313° (NW) 02:23:20 145.980
GONETS M04 10 Dec 02:18:28 02:25:46 29° 295° (WNW) 02:33:07
PHONESAT 2.4 10 Dec 02:27:14 02:29:10 18° 196° (SSW) 02:31:05 2401.200-2431.200
Oscar 19 10 Dec 02:34:15 02:39:07 41° 292° (WNW) 02:43:58 437.125/150
AO-7 10 Dec 02:37:33 02:44:00 24° 92° (E) 02:50:25 29.400- 29.500
Cosmos 2499 10 Dec 02:49:44 02:55:26 18° 304° (NW) 03:01:12 435.465 / 435.565
AUBIESAT-1 10 Dec 02:52:46 02:56:01 21° 263° (W) 02:59:23 437.475
SWISSCUBE 10 Dec 02:59:14 03:02:54 22° 267° (W) 03:06:35 437.505
BEESAT 10 Dec 03:02:43 03:06:26 22° 266° (W) 03:10:11 436.000
Gurwin Techsat 1B 10 Dec 03:05:05 03:10:05 42° 292° (WNW) 03:15:04 435.225
M-CUBED/EXP-1 PRIME 10 Dec 03:10:50 03:12:24 12° 268° (W) 03:14:00 437.505
ITAMSAT 1 10 Dec 03:11:52 03:16:59 57° 101° (ESE) 03:22:03 435.822/435.867
SO-50 10 Dec 03:20:14 03:24:43 56° 50° (NE) 03:29:06 436.795
STARS 10 Dec 03:21:15 03:25:15 34° 68° (ENE) 03:29:16 437.465
KKS-1 10 Dec 03:27:00 03:31:29 81° 73° (ENE) 03:35:59 437.445
MOZHAYETS 4 10 Dec 03:28:59 03:33:22 44° 262° (W) 03:37:46
ITUPSAT 1 10 Dec 03:35:49 03:37:28 12° 272° (W) 03:39:08 437.325
CUBESAT XI-V 10 Dec 03:43:28 03:47:45 41° 70° (ENE) 03:52:05 437.345
YUBILEINY 10 Dec 03:53:36 03:59:31 19° 57° (ENE) 04:05:23 435.215
BEESAT 3 10 Dec 04:02:19 04:06:08 55° 120° (ESE) 04:10:00 437.485
BRITE-PL 10 Dec 04:08:39 04:12:19 18° 89° (E) 04:16:02 437.365/2234.400
Cosmos 2504 10 Dec 04:12:29 04:15:38 12° 49° (NE) 04:18:43 435.465 / 435.565
AO-7 10 Dec 04:29:14 04:37:39 81° 290° (WNW) 04:46:00 29.400- 29.500
HORYU 2 10 Dec 04:31:26 04:33:55 15° 90° (E) 04:36:23 437.375
Cosmos 2491 10 Dec 04:32:04 04:34:29 11° 70° (ENE) 04:36:53 435.465 / 435.565
RS-15 10 Dec 04:36:00 04:40:50 13° 92° (E) 04:45:42 29.354- 29.394
BEESAT 2 10 Dec 04:40:56 04:44:50 65° 122° (ESE) 04:48:48 435.950
ITAMSAT 1 10 Dec 04:52:12 04:56:02 21° 299° (WNW) 04:59:51 435.822/435.867
STARS 10 Dec 04:57:57 05:01:39 25° 265° (W) 05:05:21 437.465
GOMX 1 10 Dec 04:59:37 05:03:52 22° 91° (E) 05:08:04 467.674
SO-50 10 Dec 05:01:35 05:04:45 19° 249° (WSW) 05:07:53 436.795
KKS-1 10 Dec 05:07:25 05:08:37 11° 272° (W) 05:09:48 437.445
CUTE-I 10 Dec 05:19:06 05:22:16 16° 89° (E) 05:25:25 437.470
CUBESAT XI-V 10 Dec 05:21:43 05:25:18 22° 267° (W) 05:28:54 437.345
NOAA 15 10 Dec 05:26:43 05:30:35 20° 92° (E) 05:34:26 137.62
AIST 1 10 Dec 05:26:57 05:30:23 22° 70° (ENE) 05:33:47
BEESAT 3 10 Dec 05:41:08 05:44:04 20° 320° (NW) 05:47:02 437.485
Cubesat XI-IV 10 Dec 05:45:34 05:50:04 27° 94° (E) 05:54:30 437.490
BRITE-PL 10 Dec 05:45:44 05:51:14 74° 286° (WNW) 05:56:55 437.365/2234.400
YUBILEINY 10 Dec 05:49:02 05:57:56 79° 80° (E) 06:06:46 435.215
STRAND 1 10 Dec 05:53:24 05:58:05 37° 67° (ENE) 06:02:47 437.568
Cosmos 2504 10 Dec 06:02:59 06:11:33 53° 74° (ENE) 06:19:35 435.465 / 435.565
NOAA 18 10 Dec 06:05:13 06:09:48 26° 94° (E) 06:14:19 137.9125
HORYU 2 10 Dec 06:06:29 06:10:51 59° 288° (WNW) 06:15:11 437.375
LilacSat-2 10 Dec 06:11:32 06:15:13 49° 99° (E) 06:18:52 437.200
AIST 2 10 Dec 06:11:37 06:14:10 16° 111° (ESE) 06:16:45 435.215
BEESAT 2 10 Dec 06:20:14 06:23:02 18° 322° (NW) 06:25:52 435.950
Cosmos 2491 10 Dec 06:20:48 06:29:20 61° 92° (E) 06:37:54 435.465 / 435.565
AO-7 10 Dec 06:23:15 06:29:13 22° 313° (NW) 06:35:12 29.400- 29.500
DOVE 4 10 Dec 06:24:27 06:29:39 55° 99° (E) 06:34:38 437.250
GOMX 1 10 Dec 06:36:52 06:42:15 57° 288° (WNW) 06:47:35 467.674
RS-15 10 Dec 06:38:59 06:50:25 61° 114° (ESE) 07:02:22 29.354- 29.394
CUTE-I 10 Dec 06:57:33 07:02:53 74° 287° (WNW) 07:08:10 437.470
AIST 1 10 Dec 07:04:01 07:08:07 37° 268° (W) 07:12:09
NOAA 15 10 Dec 07:05:33 07:10:44 58° 289° (WNW) 07:15:54 137.62
CINEMA 3 10 Dec 07:10:13 07:14:40 38° 96° (E) 07:18:54 145.822/145.860
Cubesat XI-IV 10 Dec 07:25:14 07:30:17 44° 292° (WNW) 07:35:19 437.490
BRITE-PL 10 Dec 07:26:27 07:28:50 13° 303° (WNW) 07:31:15 437.365/2234.400
STRAND 1 10 Dec 07:32:49 07:37:18 30° 265° (W) 07:41:49 437.568
CUTE 1.7 + AOD 2 10 Dec 07:35:38 07:39:39 41° 98° (E) 07:43:39 437.475
AAUSAT CUBESAT 2 10 Dec 07:37:59 07:40:33 16° 91° (E) 07:43:07 437.432
NOAA 18 10 Dec 07:45:21 07:50:41 49° 292° (WNW) 07:55:57 137.9125
PRISM 10 Dec 07:45:43 07:49:17 30° 68° (ENE) 07:52:54 437.425
HO-68 10 Dec 07:46:30 07:53:35 55° 101° (ESE) 08:00:37 435.675
LilacSat-2 10 Dec 07:47:06 07:49:07 14° 296° (WNW) 07:51:06 437.200
YUBILEINY 10 Dec 07:47:10 07:53:43 24° 281° (WNW) 08:00:17 435.215
AIST 2 10 Dec 07:48:08 07:52:12 57° 309° (NW) 07:56:20 435.215
CANX-2 10 Dec 07:54:30 07:58:45 77° 102° (ESE) 08:02:58 2200.000
Cosmos 2504 10 Dec 07:56:52 08:04:38 38° 276° (W) 08:12:01 435.465 / 435.565
ZACube-1 10 Dec 08:02:35 08:04:28 13° 89° (E) 08:06:21 437.345
DOVE 4 10 Dec 08:02:51 08:06:54 23° 298° (WNW) 08:10:51 437.250
FUNcube-1 10 Dec 08:07:27 08:09:28 13° 89° (E) 08:11:29 145.935
UNISAT 6 10 Dec 08:07:47 08:10:26 15° 61° (ENE) 08:13:04 437.425
SEEDS 10 Dec 08:10:15 08:14:26 67° 102° (ESE) 08:18:36 437.485
COMPASS 1 10 Dec 08:11:52 08:15:54 46° 99° (E) 08:19:55 437.405
Cosmos 2491 10 Dec 08:19:00 08:26:42 33° 293° (WNW) 08:34:26 435.465 / 435.565
Oscar 11 10 Dec 08:30:54 08:34:24 24° 94° (E) 08:37:52 145.826/435.025
CUBEBUG 2 10 Dec 08:33:50 08:38:12 72° 101° (E) 08:42:25 437.445
TIGRISAT 10 Dec 08:34:56 08:38:43 25° 66° (ENE) 08:42:28 435.000
ANTELSAT 10 Dec 08:37:28 08:41:24 28° 67° (ENE) 08:45:17 437.575/2403.000
CUTE-I 10 Dec 08:40:01 08:42:00 12° 306° (NW) 08:43:59 437.470
DANDE 10 Dec 08:43:59 08:44:21 10° 93° (E) 08:44:42 436.750
CINEMA 3 10 Dec 08:47:42 08:51:36 25° 295° (WNW) 08:55:20 145.822/145.860
RS-15 10 Dec 08:51:42 09:03:19 53° 321° (NW) 09:15:23 29.354- 29.394
CUSAT 1 10 Dec 08:51:53 08:54:39 50° 98° (E) 08:57:12 437.405
Cosmos 2499 10 Dec 08:52:01 08:53:58 11° 47° (NE) 08:55:53 435.465 / 435.565
JAS-2 10 Dec 08:57:07 09:00:11 15° 57° (ENE) 09:03:06 435.910
AO-85 10 Dec 09:03:51 09:07:41 41° 48° (NE) 09:11:23 145.980
UWE-3 10 Dec 09:06:29 09:10:47 80° 283° (WNW) 09:14:57 435.000/436.395/437.385
CUTE 1.7 + AOD 2 10 Dec 09:12:07 09:15:13 20° 295° (WNW) 09:18:19 437.475
AAUSAT CUBESAT 2 10 Dec 09:12:17 09:16:17 48° 288° (WNW) 09:20:18 437.432
PRISM 10 Dec 09:21:14 09:24:35 25° 265° (W) 09:27:59 437.425
AIST 2 10 Dec 09:29:58 09:31:35 12° 330° (NNW) 09:33:12 435.215
DELFI C3 10 Dec 09:30:03 09:33:46 36° 98° (E) 09:37:27 145.870
QB50P2 10 Dec 09:31:57 09:33:55 13° 60° (ENE) 09:35:54 145.880/145.840
CANX-2 10 Dec 09:32:25 09:34:00 12° 300° (WNW) 09:35:35 2200.000
POLYITAN 1 10 Dec 09:32:31 09:34:20 12° 60° (ENE) 09:36:10 437.675
HO-68 10 Dec 09:34:42 09:41:00 34° 300° (WNW) 09:47:16 435.675
ZACube-1 10 Dec 09:37:01 09:41:12 60° 287° (WNW) 09:45:16 437.345
DUCHIFAT 1 10 Dec 09:41:12 09:43:08 13° 60° (ENE) 09:45:05 145.980
UNISAT 6 10 Dec 09:41:57 09:46:37 70° 258° (WSW) 09:51:13 437.425
FUNcube-1 10 Dec 09:41:59 09:46:07 57° 287° (WNW) 09:50:10 145.935
QB50P1 10 Dec 09:43:07 09:45:41 16° 62° (ENE) 09:48:16 145.935-145.965
SEEDS 10 Dec 09:47:36 09:49:35 13° 299° (WNW) 09:51:36 437.485
COMPASS 1 10 Dec 09:48:18 09:51:06 18° 296° (WNW) 09:53:55 437.405
POPSAT HIP 1 10 Dec 10:04:05 10:07:32 24° 66° (ENE) 10:11:00 437.405
Oscar 11 10 Dec 10:06:42 10:10:37 34° 290° (WNW) 10:14:30 145.826/435.025
TIGRISAT 10 Dec 10:10:51 10:15:13 39° 262° (W) 10:19:33 435.000
CUBEBUG 2 10 Dec 10:12:11 10:14:12 13° 300° (WNW) 10:16:12 437.445
ANTELSAT 10 Dec 10:13:43 10:17:59 35° 263° (W) 10:22:13 437.575/2403.000
BUGSAT 1 10 Dec 10:18:48 10:20:44 13° 60° (ENE) 10:22:42 437.445
DANDE 10 Dec 10:23:10 10:26:54 41° 282° (WNW) 10:29:54 436.750
HUMSAT D 10 Dec 10:23:11 10:27:16 75° 101° (E) 10:31:21 437.325/437.525
GONETS M04 10 Dec 10:27:22 10:35:23 38° 69° (ENE) 10:43:22
JAS-2 10 Dec 10:38:25 10:44:38 86° 75° (ENE) 10:50:12 435.910
BEESAT 3 10 Dec 10:41:17 10:42:52 12° 32° (NNE) 10:44:26 437.485
Cosmos 2499 10 Dec 10:41:29 10:49:45 49° 73° (ENE) 10:57:24 435.465 / 435.565
PCSat 10 Dec 10:41:34 10:46:56 70° 118° (ESE) 10:52:22 145.827
AO-85 10 Dec 10:44:54 10:47:47 20° 247° (WSW) 10:50:37 145.980
NANOSAT C BR1 10 Dec 10:54:17 10:58:33 76° 75° (ENE) 11:02:49 145.865
QB50P2 10 Dec 11:04:52 11:09:09 73° 258° (WSW) 11:13:27 145.880/145.840
AISAT 10 Dec 11:05:14 11:07:31 14° 90° (E) 11:09:46 437.250
POLYITAN 1 10 Dec 11:05:15 11:09:32 77° 256° (WSW) 11:13:51 437.675
DELFI C3 10 Dec 11:05:23 11:08:21 20° 294° (WNW) 11:11:19 145.870
RS-15 10 Dec 11:09:08 11:19:33 31° 353° (N) 11:30:05 29.354- 29.394
DUCHIFAT 1 10 Dec 11:14:00 11:18:15 72° 257° (WSW) 11:22:32 145.980
QB50P1 10 Dec 11:16:48 11:21:01 58° 260° (W) 11:25:16 145.935-145.965
ESTCUBE 1 10 Dec 11:17:23 11:21:41 41° 98° (E) 11:25:57 437.505/2401.250
CUBEBUG 1 10 Dec 11:17:26 11:21:09 26° 94° (E) 11:24:51 437.445
BEESAT 2 10 Dec 11:20:19 11:22:23 13° 34° (NNE) 11:24:25 435.950
UKube-1 10 Dec 11:38:00 11:38:50 10° 88° (E) 11:39:39 .
SPROUT 10 Dec 11:38:35 11:41:41 19° 92° (E) 11:44:44 437.525
DX 1 10 Dec 11:38:51 11:41:26 15° 91° (E) 11:44:00 434.975-435.025
POPSAT HIP 1 10 Dec 11:39:15 11:43:10 34° 263° (W) 11:47:06 437.405
VELOX 1 10 Dec 11:40:31 11:44:27 29° 96° (E) 11:48:20 145.980
BUGSAT 1 10 Dec 11:51:18 11:55:32 73° 258° (WSW) 11:59:49 437.445
AO-7 10 Dec 11:53:09 11:55:34 12° 35° (NE) 11:58:00 29.400- 29.500
HUMSAT D 10 Dec 12:00:58 12:02:18 11° 300° (WNW) 12:03:38 437.325/437.525
Oscar 19 10 Dec 12:13:53 12:18:48 49° 70° (ENE) 12:23:46 437.125/150
BEESAT 3 10 Dec 12:17:18 12:21:17 64° 52° (NE) 12:25:14 437.485
50 SAT 10 Dec 12:18:33 12:22:07 64° 101° (E) 12:25:40 437.505
GONETS M04 10 Dec 12:24:07 12:32:27 53° 271° (W) 12:40:49
PCSat 10 Dec 12:26:31 12:30:51 24° 319° (NW) 12:35:15 145.827
JAS-2 10 Dec 12:27:12 12:30:17 14° 270° (W) 12:33:14 435.910
NANOSAT C BR1 10 Dec 12:33:48 12:34:47 11° 272° (W) 12:35:47 145.865
Cosmos 2499 10 Dec 12:35:00 12:42:40 39° 275° (W) 12:49:49 435.465 / 435.565
AISAT 10 Dec 12:39:58 12:44:25 65° 287° (WNW) 12:48:50 437.250
TISAT 1 10 Dec 12:43:40 12:46:15 16° 91° (E) 12:48:47 437.305
Gurwin Techsat 1B 10 Dec 12:48:19 12:53:29 53° 70° (ENE) 12:58:40 435.225
CUBEBUG 1 10 Dec 12:53:28 12:57:28 34° 292° (WNW) 13:01:28 437.445
ESTCUBE 1 10 Dec 12:54:42 12:58:14 23° 295° (WNW) 13:01:46 437.505/2401.250
ITAMSAT 1 10 Dec 12:54:57 12:58:11 17° 58° (ENE) 13:01:24 435.822/435.867
BEESAT 2 10 Dec 12:56:49 13:00:53 75° 55° (NE) 13:04:54 435.950
UKube-1 10 Dec 13:11:03 13:15:25 80° 284° (WNW) 13:19:45 .
DX 1 10 Dec 13:13:39 13:17:59 57° 288° (WNW) 13:22:16 434.975-435.025
SPROUT 10 Dec 13:13:44 13:17:48 42° 290° (WNW) 13:21:49 437.525
VELOX 1 10 Dec 13:16:57 13:20:51 30° 293° (WNW) 13:24:44 145.980
RS-15 10 Dec 13:25:13 13:36:37 39° 27° (NNE) 13:47:51 29.354- 29.394
AO-7 10 Dec 13:38:31 13:46:06 42° 58° (ENE) 13:53:44 29.400- 29.500
O/OREOS (USA 219) 10 Dec 13:52:11 13:52:47 10° 96° (E) 13:53:23 437.305
ITUPSAT 1 10 Dec 13:53:38 13:56:53 18° 92° (E) 14:00:07 437.325
50 SAT 10 Dec 13:54:20 13:54:54 10° 298° (WNW) 13:55:27 437.505
Oscar 19 10 Dec 13:54:24 13:58:23 23° 267° (W) 14:02:25 437.125/150
BEESAT 3 10 Dec 13:56:22 13:58:25 14° 250° (WSW) 14:00:26 437.485
TISAT 1 10 Dec 14:18:04 14:22:10 50° 288° (WNW) 14:26:14 437.305
ISS 10 Dec 14:20:22 14:23:06 25° 138° (SE) 14:25:52 145.825
AUBIESAT-1 10 Dec 14:28:29 14:32:13 25° 98° (E) 14:35:47 437.475
AIST 2 10 Dec 14:29:28 14:32:59 25° 42° (NE) 14:36:30 435.215
Gurwin Techsat 1B 10 Dec 14:29:41 14:33:44 22° 268° (W) 14:37:50 435.225
ITAMSAT 1 10 Dec 14:31:49 14:37:02 77° 257° (WSW) 14:42:16 435.822/435.867
BEESAT 2 10 Dec 14:36:38 14:38:05 12° 251° (WSW) 14:39:31 435.950
M-CUBED/EXP-1 PRIME 10 Dec 14:44:33 14:49:00 44° 103° (ESE) 14:53:13 437.505
SWISSCUBE 10 Dec 14:55:44 15:00:31 81° 105° (ESE) 15:05:16 437.505
BEESAT 10 Dec 14:59:14 15:04:01 79° 103° (ESE) 15:08:46 436.000
KKS-1 10 Dec 15:17:34 15:19:44 13° 89° (E) 15:21:53 437.445
MOZHAYETS 4 10 Dec 15:21:44 15:25:56 36° 97° (E) 15:30:07
BRITE-PL 10 Dec 15:22:06 15:25:22 20° 61° (ENE) 15:28:48 437.365/2234.400
O/OREOS (USA 219) 10 Dec 15:26:53 15:31:27 87° 295° (WNW) 15:36:00 437.305
ITUPSAT 1 10 Dec 15:30:23 15:35:03 54° 289° (WNW) 15:39:41 437.325
AO-7 10 Dec 15:30:41 15:38:42 52° 258° (WSW) 15:46:49 29.400- 29.500
HORYU 2 10 Dec 15:31:09 15:34:19 19° 63° (ENE) 15:37:28 437.375
RS-15 10 Dec 15:38:29 15:50:58 89° 59° (ENE) 16:03:02 29.354- 29.394
ISS 10 Dec 15:56:11 15:59:26 55° 336° (NNW) 16:02:41 145.825
NOAA 18 10 Dec 15:58:10 15:59:05 10° 51° (NE) 15:59:59 137.9125
DOVE 4 10 Dec 15:58:45 15:59:26 10° 54° (NE) 16:00:06 437.250
AUBIESAT-1 10 Dec 16:02:28 16:06:43 39° 297° (WNW) 16:10:46 437.475
AIST 2 10 Dec 16:07:36 16:11:40 46° 241° (WSW) 16:15:42 435.215
GOMX 1 10 Dec 16:09:42 16:13:40 26° 64° (ENE) 16:17:51 467.674
M-CUBED/EXP-1 PRIME 10 Dec 16:19:26 16:23:10 24° 302° (WNW) 16:26:47 437.505
SWISSCUBE 10 Dec 16:35:15 16:37:40 14° 302° (WNW) 16:40:05 437.505
HO-68 10 Dec 16:35:26 16:37:45 12° 44° (NE) 16:40:05 435.675
